Location: Ciserano
(45.5833°N, 9.6000°E)
Time: 08:42:36
(UTC+00:00)

MOS 1 Rocket - Pass Details

Date: 29 November 2020
Orbit: 613 x 831 km, 97.4° (Epoch: 25 January)

Event Time Altitude Azimuth Distance (km) Brightness Sun altitude
Rises 05:08:31 0° 167° (SSE) 3,053 7.0 -15.5°
Reaches altitude 10° 05:10:42 10° 168° (SSE) 2,173 6.2 -15.1°
Maximum altitude 05:15:29 86° 256° (WSW) 748 3.4 -14.3°
Drops below altitude 10° 05:20:39 10° 347° (NNW) 2,330 5.7 -13.4°
Sets 05:23:03 0° 348° (NNW) 3,292 6.5 -13.0°
